Time,TemperatureF,DewpointF,PressureIn,WindDirection,WindDirectionDegrees,WindSpeedMPH,WindSpeedGustMPH,Humidity,HourlyPrecipIn,Conditions,Clouds,dailyrainin,SoftwareType,DateUTC
2013-05-09 00:02:00,61.0,54.0,-100.00,ESE,120,4.0,7.0,78,0.00,,,-99.99,,2013-05-09 05:02:00,
2013-05-09 00:12:00,61.0,54.0,-100.00,ESE,120,4.0,6.0,79,0.00,,,-99.99,,2013-05-09 05:12:00,
2013-05-09 00:22:00,61.0,54.0,-100.00,ESE,110,6.0,6.0,79,0.00,,,-99.99,,2013-05-09 05:22:00,
2013-05-09 00:32:00,61.0,54.0,-100.00,ESE,115,5.0,7.0,79,0.00,,,-99.99,,2013-05-09 05:32:00,
2013-05-09 00:42:00,61.0,54.0,-100.00,ESE,115,5.0,7.0,79,0.00,,,-99.99,,2013-05-09 05:42:00,
2013-05-09 00:51:00,60.0,54.0,-100.00,SE,135,4.0,6.0,81,0.00,,,-99.99,,2013-05-09 05:51:00,
2013-05-09 01:02:00,60.0,54.0,-100.00,SE,135,4.0,6.0,81,0.00,,,-99.99,,2013-05-09 06:02:00,
2013-05-09 01:11:00,60.0,54.0,-100.00,SE,135,4.0,6.0,81,0.00,,,-99.99,,2013-05-09 06:11:00,
2013-05-09 01:21:00,60.0,55.0,-100.00,SE,130,4.0,7.0,81,0.00,,,-99.99,,2013-05-09 06:21:00,
2013-05-09 01:32:00,60.0,54.0,-100.00,SE,135,5.0,7.0,80,0.00,,,-99.99,,2013-05-09 06:32:00,
2013-05-09 01:42:00,60.0,54.0,-100.00,SE,125,4.0,7.0,80,0.00,,,-99.99,,2013-05-09 06:42:00,
2013-05-09 01:52:00,60.0,54.0,-100.00,SE,145,4.0,7.0,80,0.00,,,-99.99,,2013-05-09 06:52:00,
2013-05-09 02:01:00,60.0,54.0,-100.00,SE,145,4.0,7.0,80,0.00,,,-99.99,,2013-05-09 07:01:00,
2013-05-09 02:12:00,61.0,54.0,-100.00,SE,140,6.0,7.0,80,0.00,,,-99.99,,2013-05-09 07:12:00,
2013-05-09 02:21:00,60.0,54.0,-100.00,SE,135,7.0,9.0,80,0.00,,,-99.99,,2013-05-09 07:21:00,
2013-05-09 02:32:00,61.0,54.0,-100.00,South,170,7.0,11.0,79,0.00,,,-99.99,,2013-05-09 07:32:00,
2013-05-09 02:42:00,61.0,54.0,-100.00,South,170,7.0,11.0,79,0.00,,,-99.99,,2013-05-09 07:42:00,
2013-05-09 02:52:00,61.0,54.0,-100.00,South,170,7.0,11.0,79,0.00,,,-99.99,,2013-05-09 07:52:00,
2013-05-09 03:02:00,61.0,54.0,-100.00,South,170,7.0,11.0,79,0.00,,,-99.99,,2013-05-09 08:02:00,
2013-05-09 03:11:00,61.0,54.0,-100.00,South,170,7.0,11.0,79,0.00,,,-99.99,,2013-05-09 08:11:00,
2013-05-09 03:21:00,61.0,54.0,-100.00,South,170,7.0,11.0,79,0.00,,,-99.99,,2013-05-09 08:21:00,
2013-05-09 07:22:00,58.0,55.0,-100.00,ENE,75,2.0,3.0,90,0.00,,,-99.99,,2013-05-09 12:22:00,
2013-05-09 07:32:00,59.0,56.0,-100.00,SE,125,2.0,4.0,90,0.00,,,-99.99,,2013-05-09 12:32:00,
2013-05-09 07:42:00,59.0,56.0,-100.00,SE,125,2.0,4.0,90,0.00,,,-99.99,,2013-05-09 12:42:00,
2013-05-09 07:52:00,60.0,57.0,-100.00,ESE,110,4.0,7.0,90,0.00,,,-99.99,,2013-05-09 12:52:00,
2013-05-09 08:01:00,60.0,57.0,-100.00,ESE,110,4.0,7.0,90,0.00,,,-99.99,,2013-05-09 13:01:00,
2013-05-09 08:12:00,60.0,57.0,-100.00,SE,125,2.0,5.0,90,0.00,,,-99.99,,2013-05-09 13:12:00,
2013-05-09 08:21:00,60.0,57.0,-100.00,SE,135,2.0,4.0,89,0.00,,,-99.99,,2013-05-09 13:21:00,
2013-05-09 08:32:00,61.0,58.0,-100.00,SE,135,3.0,6.0,88,0.00,,,-99.99,,2013-05-09 13:32:00,
2013-05-09 08:42:00,61.0,58.0,-100.00,SE,135,3.0,6.0,88,0.00,,,-99.99,,2013-05-09 13:42:00,
2013-05-09 08:52:00,60.0,57.0,-100.00,SE,130,4.0,7.0,88,0.00,,,-99.99,,2013-05-09 13:52:00,
2013-05-09 09:01:00,60.0,57.0,-100.00,SE,130,4.0,7.0,88,0.00,,,-99.99,,2013-05-09 14:01:00,
2013-05-09 09:11:00,60.0,57.0,-100.00,SE,130,5.0,7.0,88,0.08,,,-99.99,,2013-05-09 14:11:00,
2013-05-09 09:21:00,60.0,57.0,-100.00,SE,130,4.0,7.0,88,0.08,,,-99.99,,2013-05-09 14:21:00,
2013-05-09 09:32:00,60.0,57.0,-100.00,SE,125,6.0,8.0,89,0.00,,,-99.99,,2013-05-09 14:32:00,
2013-05-09 09:41:00,60.0,57.0,-100.00,SE,125,6.0,8.0,89,0.00,,,-99.99,,2013-05-09 14:41:00,
2013-05-09 09:52:00,61.0,58.0,-100.00,SSE,165,6.0,11.0,89,0.00,,,-99.99,,2013-05-09 14:52:00,
2013-05-09 10:01:00,61.0,58.0,-100.00,SSE,165,6.0,11.0,89,0.00,,,-99.99,,2013-05-09 15:01:00,
2013-05-09 10:11:00,61.0,58.0,-100.00,SSE,155,4.0,8.0,89,0.01,,,-99.99,,2013-05-09 15:11:00,
2013-05-09 10:21:00,61.0,58.0,-100.00,SSE,155,6.0,9.0,89,0.04,,,-99.99,,2013-05-09 15:21:00,
2013-05-09 10:33:00,62.0,58.0,-100.00,SSE,165,4.0,8.0,89,0.00,,,-99.99,,2013-05-09 15:33:00,
2013-05-09 10:43:00,62.0,58.0,-100.00,SSE,165,4.0,8.0,89,0.00,,,-99.99,,2013-05-09 15:43:00,
2013-05-09 10:52:00,62.0,59.0,-100.00,SSE,150,3.0,6.0,89,0.00,,,-99.99,,2013-05-09 15:52:00,
2013-05-09 11:03:00,62.0,59.0,-100.00,SSE,150,3.0,6.0,89,0.00,,,-99.99,,2013-05-09 16:03:00,
2013-05-09 11:12:00,62.0,59.0,-100.00,SSE,150,3.0,7.0,89,0.00,,,-99.99,,2013-05-09 16:12:00,
2013-05-09 11:22:00,62.0,59.0,-100.00,SSE,160,3.0,6.0,88,0.00,,,-99.99,,2013-05-09 16:22:00,
2013-05-09 11:33:00,62.0,59.0,-100.00,SSE,155,2.0,3.0,88,0.00,,,-99.99,,2013-05-09 16:33:00,
2013-05-09 11:42:00,62.0,59.0,-100.00,SSE,155,2.0,3.0,88,0.00,,,-99.99,,2013-05-09 16:42:00,
2013-05-09 11:52:00,62.0,58.0,-100.00,West,260,2.0,4.0,86,0.00,,,-99.99,,2013-05-09 16:52:00,
2013-05-09 12:02:00,62.0,58.0,-100.00,West,260,2.0,4.0,86,0.00,,,-99.99,,2013-05-09 17:02:00,
2013-05-09 12:12:00,62.0,58.0,-100.00,WNW,300,1.0,4.0,86,0.06,,,-99.99,,2013-05-09 17:12:00,
2013-05-09 12:21:00,62.0,58.0,-100.00,SSW,205,3.0,6.0,86,0.35,,,-99.99,,2013-05-09 17:21:00,
2013-05-09 12:32:00,62.0,58.0,-100.00,WSW,245,2.0,5.0,88,0.13,,,-99.99,,2013-05-09 17:32:00,
2013-05-09 12:42:00,62.0,58.0,-100.00,WSW,245,2.0,5.0,88,0.13,,,-99.99,,2013-05-09 17:42:00,
2013-05-09 12:55:00,62.0,58.0,-100.00,NNW,340,5.0,6.0,88,0.00,,,-99.99,,2013-05-09 17:55:00,
2013-05-09 13:01:00,62.0,58.0,-100.00,NNW,340,5.0,6.0,88,0.00,,,-99.99,,2013-05-09 18:01:00,
2013-05-09 13:12:00,62.0,59.0,-100.00,NNW,340,6.0,8.0,89,0.00,,,-99.99,,2013-05-09 18:12:00,
2013-05-09 13:21:00,62.0,59.0,-100.00,North,10,6.0,7.0,89,0.00,,,-99.99,,2013-05-09 18:21:00,
2013-05-09 13:32:00,63.0,60.0,-100.00,North,0,5.0,7.0,88,0.00,,,-99.99,,2013-05-09 18:32:00,
2013-05-09 13:42:00,63.0,60.0,-100.00,North,0,5.0,7.0,88,0.00,,,-99.99,,2013-05-09 18:42:00,
2013-05-09 13:52:00,63.0,59.0,-100.00,North,0,6.0,9.0,88,0.00,,,-99.99,,2013-05-09 18:52:00,
2013-05-09 14:01:00,63.0,59.0,-100.00,North,0,6.0,9.0,88,0.00,,,-99.99,,2013-05-09 19:01:00,
2013-05-09 14:11:00,63.0,59.0,-100.00,North,5,6.0,8.0,86,0.00,,,-99.99,,2013-05-09 19:11:00,
2013-05-09 14:21:00,64.0,60.0,-100.00,North,5,4.0,7.0,85,0.00,,,-99.99,,2013-05-09 19:21:00,
2013-05-09 14:31:00,65.0,58.0,-100.00,North,0,7.0,10.0,78,0.00,,,-99.99,,2013-05-09 19:31:00,
2013-05-09 14:41:00,65.0,58.0,-100.00,North,0,7.0,10.0,78,0.00,,,-99.99,,2013-05-09 19:41:00,
2013-05-09 14:52:00,66.0,58.0,-100.00,North,0,8.0,11.0,75,0.00,,,-99.99,,2013-05-09 19:52:00,
2013-05-09 15:01:00,66.0,58.0,-100.00,North,0,8.0,11.0,75,0.00,,,-99.99,,2013-05-09 20:01:00,
2013-05-09 15:11:00,65.0,56.0,-100.00,North,0,8.0,12.0,73,0.00,,,-99.99,,2013-05-09 20:11:00,
2013-05-09 15:22:00,64.0,56.0,-100.00,North,0,11.0,14.0,75,0.00,,,-99.99,,2013-05-09 20:22:00,
2013-05-09 15:32:00,62.0,56.0,-100.00,NNW,330,11.0,13.0,82,0.00,,,-99.99,,2013-05-09 20:32:00,
2013-05-09 15:42:00,62.0,56.0,-100.00,NNW,330,11.0,13.0,82,0.00,,,-99.99,,2013-05-09 20:42:00,
2013-05-09 15:52:00,64.0,57.0,-100.00,NNW,340,7.0,13.0,77,0.00,,,-99.99,,2013-05-09 20:52:00,
2013-05-09 16:02:00,64.0,57.0,-100.00,NNW,340,7.0,13.0,77,0.00,,,-99.99,,2013-05-09 21:02:00,
2013-05-09 16:11:00,66.0,56.0,-100.00,North,355,7.0,11.0,71,0.00,,,-99.99,,2013-05-09 21:11:00,
2013-05-09 16:22:00,66.0,55.0,-100.00,NNW,345,10.0,16.0,67,0.00,,,-99.99,,2013-05-09 21:22:00,
2013-05-09 16:32:00,66.0,54.0,-100.00,NNW,345,6.0,12.0,65,0.00,,,-99.99,,2013-05-09 21:32:00,
2013-05-09 16:43:00,66.0,54.0,-100.00,NNW,345,6.0,12.0,65,0.00,,,-99.99,,2013-05-09 21:43:00,
2013-05-09 16:52:00,66.0,54.0,-100.00,NW,325,4.0,8.0,67,0.00,,,-99.99,,2013-05-09 21:52:00,
2013-05-09 17:03:00,66.0,54.0,-100.00,NW,325,4.0,8.0,67,0.00,,,-99.99,,2013-05-09 22:03:00,
2013-05-09 17:12:00,67.0,56.0,-100.00,North,0,2.0,8.0,66,0.00,,,-99.99,,2013-05-09 22:12:00,
2013-05-09 17:22:00,67.0,55.0,-100.00,NNW,335,4.0,7.0,65,0.00,,,-99.99,,2013-05-09 22:22:00,
2013-05-09 17:33:00,67.0,54.0,-100.00,NNW,330,5.0,7.0,62,0.00,,,-99.99,,2013-05-09 22:33:00,
2013-05-09 17:42:00,67.0,54.0,-100.00,NNW,330,5.0,7.0,62,0.00,,,-99.99,,2013-05-09 22:42:00,
2013-05-09 17:52:00,66.0,53.0,-100.00,NW,315,5.0,7.0,61,0.00,,,-99.99,,2013-05-09 22:52:00,
2013-05-09 18:02:00,66.0,53.0,-100.00,NW,315,5.0,7.0,61,0.00,,,-99.99,,2013-05-09 23:02:00,
2013-05-09 18:12:00,66.0,53.0,-100.00,WNW,295,3.0,7.0,61,0.00,,,-99.99,,2013-05-09 23:12:00,
2013-05-09 18:21:00,67.0,53.0,-100.00,West,280,4.0,6.0,61,0.00,,,-99.99,,2013-05-09 23:21:00,
2013-05-09 18:32:00,67.0,54.0,-100.00,West,280,5.0,8.0,63,0.00,,,-99.99,,2013-05-09 23:32:00,
2013-05-09 18:42:00,67.0,54.0,-100.00,West,280,5.0,8.0,63,0.00,,,-99.99,,2013-05-09 23:42:00,
2013-05-09 18:52:00,66.0,53.0,-100.00,WNW,290,4.0,6.0,61,0.00,,,-99.99,,2013-05-09 23:52:00,
2013-05-09 19:01:00,66.0,53.0,-100.00,WNW,290,4.0,6.0,61,0.00,,,-99.99,,2013-05-10 00:01:00,
2013-05-09 19:11:00,66.0,53.0,-100.00,West,280,6.0,7.0,63,0.06,,,-99.99,,2013-05-10 00:11:00,
2013-05-09 19:22:00,65.0,54.0,-100.00,WNW,285,4.0,6.0,65,0.00,,,-99.99,,2013-05-10 00:22:00,
2013-05-09 19:42:00,62.0,55.0,-100.00,West,280,11.0,20.0,77,0.34,,,-99.99,,2013-05-10 00:42:00,
2013-05-09 19:51:00,62.0,56.0,-100.00,WNW,295,6.0,11.0,81,0.00,,,-99.99,,2013-05-10 00:51:00,
2013-05-09 20:01:00,62.0,57.0,-100.00,NNW,335,9.0,15.0,81,0.00,,,-99.99,,2013-05-10 01:01:00,
2013-05-09 20:11:00,62.0,56.0,-100.00,North,0,9.0,14.0,80,0.00,,,-99.99,,2013-05-10 01:11:00,
2013-05-09 20:21:00,61.0,55.0,-100.00,NNW,345,7.0,12.0,80,0.00,,,-99.99,,2013-05-10 01:21:00,
2013-05-09 20:32:00,61.0,54.0,-100.00,NNW,330,6.0,9.0,80,0.00,,,-99.99,,2013-05-10 01:32:00,
2013-05-09 20:42:00,60.0,54.0,-100.00,NNW,340,7.0,9.0,82,0.00,,,-99.99,,2013-05-10 01:42:00,
2013-05-09 20:52:00,60.0,54.0,-100.00,NNW,345,6.0,10.0,82,0.00,,,-99.99,,2013-05-10 01:52:00,
2013-05-09 21:01:00,59.0,54.0,-100.00,North,350,4.0,7.0,84,0.00,,,-99.99,,2013-05-10 02:01:00,
2013-05-09 21:11:00,59.0,54.0,-100.00,NNW,340,2.0,5.0,85,0.00,,,-99.99,,2013-05-10 02:11:00,
2013-05-09 21:21:00,59.0,55.0,-100.00,NNW,330,4.0,4.0,86,0.00,,,-99.99,,2013-05-10 02:21:00,
2013-05-09 21:32:00,59.0,55.0,-100.00,WNW,300,4.0,6.0,86,0.00,,,-99.99,,2013-05-10 02:32:00,
2013-05-09 21:42:00,58.0,55.0,-100.00,NNW,335,6.0,7.0,88,0.00,,,-99.99,,2013-05-10 02:42:00,
2013-05-09 21:52:00,58.0,55.0,-100.00,NNW,340,5.0,7.0,88,0.00,,,-99.99,,2013-05-10 02:52:00,
2013-05-09 22:01:00,58.0,54.0,-100.00,NW,305,4.0,6.0,88,0.00,,,-99.99,,2013-05-10 03:01:00,
2013-05-09 22:11:00,58.0,55.0,-100.00,NW,325,4.0,6.0,89,0.00,,,-99.99,,2013-05-10 03:11:00,
2013-05-09 22:21:00,58.0,55.0,-100.00,NW,325,4.0,6.0,89,0.00,,,-99.99,,2013-05-10 03:21:00,
2013-05-09 22:33:00,58.0,55.0,-100.00,North,355,6.0,9.0,90,0.00,,,-99.99,,2013-05-10 03:33:00,
2013-05-09 22:43:00,58.0,55.0,-100.00,North,355,6.0,9.0,90,0.00,,,-99.99,,2013-05-10 03:43:00,
2013-05-09 22:52:00,58.0,55.0,-100.00,NNW,345,6.0,8.0,90,0.00,,,-99.99,,2013-05-10 03:52:00,
2013-05-09 23:03:00,58.0,55.0,-100.00,NNW,345,6.0,8.0,90,0.00,,,-99.99,,2013-05-10 04:03:00,
2013-05-09 23:12:00,58.0,56.0,-100.00,NNW,340,7.0,10.0,90,0.00,,,-99.99,,2013-05-10 04:12:00,
2013-05-09 23:23:00,58.0,55.0,-100.00,NNW,340,9.0,14.0,90,0.00,,,-99.99,,2013-05-10 04:23:00,
2013-05-09 23:33:00,58.0,55.0,-100.00,NNW,345,8.0,13.0,90,0.00,,,-99.99,,2013-05-10 04:33:00,
2013-05-09 23:42:00,58.0,55.0,-100.00,NNW,345,8.0,13.0,90,0.00,,,-99.99,,2013-05-10 04:42:00,
2013-05-09 23:52:00,58.0,55.0,-100.00,North,350,9.0,13.0,89,0.00,,,-99.99,,2013-05-10 04:52:00,